Location: Rancho Del Sol Observatory
(38.7214°N, 120.6350°W)
Time: 01:22:50
(UTC-08:00)

Transit 4A - Visible Passes

Search period start: 25 January 2020 00:00
Search period end: 04 February 2020 00:00
Orbit: 871 x 973 km, 66.8° (Epoch: 24 January)

Date Brightness Start Highest point End Pass type
(mag) Time Alt. Az. Time Alt. Az. Time Alt. Az.
25 Jan 10.4 04:57:17 10° SSE 05:01:27 19° ESE 05:05:33 10° ENE visible
25 Jan 7.9 06:41:17 10° SW 06:47:16 61° WNW 06:53:08 10° NNE visible
26 Jan 9.7 05:05:23 10° SSE 05:10:33 30° ESE 05:15:38 10° NE visible
27 Jan 8.9 05:13:59 10° S 05:19:43 46° ESE 05:25:21 10° NE visible
28 Jan 8.1 05:22:56 10° SSW 05:28:58 70° ESE 05:34:51 10° NNE visible
29 Jan 10.5 03:49:35 10° SE 03:52:39 14° ESE 03:55:42 10° ENE visible
29 Jan 7.7 05:32:13 10° SSW 05:38:16 79° WNW 05:44:12 10° NNE visible
30 Jan 9.9 03:57:45 12° SSE 04:01:42 23° ESE 04:06:13 10° ENE visible
30 Jan 7.9 05:41:47 10° SW 05:47:39 53° WNW 05:53:25 10° NNE visible
31 Jan 9.2 04:09:13 30° SE 04:10:51 35° ESE 04:16:09 10° NE visible
31 Jan 8.4 05:52:52 16° WSW 05:57:07 36° NW 06:02:32 10° NNE visible
01 Feb 8.4 04:19:52 53° ESE 04:20:02 53° ESE 04:25:46 10° NE visible
01 Feb 8.8 06:03:29 17° W 06:06:40 25° NW 06:11:30 10° N visible
02 Feb 8.0 04:30:05 68° NE 04:30:05 68° NE 04:35:13 10° NNE visible
02 Feb 9.2 06:13:40 14° WNW 06:16:18 18° NW 06:20:16 10° N visible
03 Feb 10.7 02:56:27 10° ENE 02:56:27 10° ENE 02:56:34 10° ENE visible
03 Feb 8.2 04:40:01 51° N 04:40:01 51° N 04:44:31 10° NNE visible
03 Feb 9.5 06:23:35 10° WNW 06:26:04 13° NW 06:28:40 10° NNW visible
